SAS1641 EKBI-EKCH

Flight info

Callsign SAS1641
Flight time N/A
Altitude 19000
Route ABINO T56 TESPI
Aircraft CRJ9/M-SDFGIRWY/S

Departure

Time 2025-10-03 12:28
Airport Billund Airport (EKBI)

Arrival

Time N/A
Airport Copenhagen Kastrup Airport (EKCH)
Time Latitude Longitude Altitude Speed Heading
2025-10-03 11:56 55.74516 9.14414 214 ft 0 kts 357°
2025-10-03 12:07 55.74480 9.14417 220 ft 3 kts 357°
2025-10-03 12:08 55.74440 9.14455 217 ft 3 kts 279°
2025-10-03 12:10 55.74439 9.14480 214 ft 0 kts 239°
2025-10-03 12:11 55.74375 9.14467 218 ft 12 kts 178°
2025-10-03 12:11 55.74207 9.14482 219 ft 12 kts 177°
2025-10-03 12:12 55.74152 9.14488 219 ft 0 kts 176°
2025-10-03 12:24 55.74146 9.14489 219 ft 4 kts 176°
2025-10-03 12:24 55.74016 9.14551 217 ft 5 kts 110°
2025-10-03 12:25 55.74015 9.14562 216 ft 1 kts 88°
2025-10-03 12:25 55.74016 9.14572 218 ft 0 kts 88°
2025-10-03 12:26 55.74040 9.15312 214 ft 99 kts 87°
2025-10-03 12:27 55.74193 9.21150 2042 ft 169 kts 89°
2025-10-03 12:27 55.75665 9.24653 3471 ft 187 kts 66°
2025-10-03 12:28 55.77010 9.28999 4793 ft 208 kts 71°
2025-10-03 12:28 55.78304 9.33708 6455 ft 214 kts 70°
2025-10-03 12:29 55.79916 9.38211 8008 ft 226 kts 42°
2025-10-03 12:29 55.82347 9.41680 9695 ft 225 kts 41°
2025-10-03 12:30 55.84820 9.45136 11166 ft 226 kts 42°
2025-10-03 12:30 55.85834 9.49138 12219 ft 216 kts 97°
2025-10-03 12:31 55.85662 9.54424 13682 ft 214 kts 102°
2025-10-03 12:31 55.85334 9.59701 14882 ft 215 kts 100°
2025-10-03 12:32 55.84952 9.65013 15995 ft 218 kts 101°
2025-10-03 12:33 55.84524 9.73040 17658 ft 217 kts 94°
2025-10-03 12:33 55.84475 9.75736 18157 ft 218 kts 94°
2025-10-03 12:33 55.84333 9.81263 18827 ft 235 kts 95°
2025-10-03 12:34 55.84105 9.87547 19047 ft 277 kts 96°
2025-10-03 12:34 55.83807 9.94984 19116 ft 326 kts 95°
2025-10-03 12:35 55.83454 10.03652 19125 ft 375 kts 95°